Weather Roundup
Issued by NWS Chicago, IL

Home | Current Version | Previous Version | Graphics & Text | Print | Product List | Glossary On
Versions: 1 2 3 4 5 6 7 8 9 10 11 12 13 14 15 16 17 18 19 20 21 22 23 24 25 26 27 28 29 30 31 32 33 34 35 36 37 38 39 40 41 42 43 44 45 46 47 48 49 50
000
NZUS59 KLOT 271921
HRRLOT

CHICAGO AREA WEATHER ROUNDUP
NATIONAL WEATHER SERVICE CHICAGO/ROMEOVILLE IL
200 PM CDT THU AUG 27 2015

NOTE: "FAIR" INDICATES FEW OR NO CLOUDS BELOW 12,000 FEET WITH NO
SIGNIFICANT WEATHER AND/OR OBSTRUCTIONS TO VISIBILITY.

* THESE STATIONS ARE NOT UNDER NWS QUALITY CONTROL. THEY ALSO MAY NOT
  REPORT WEATHER SUCH AS PRECIPITATION OR FOG.

ILZ005-006-012>014-019>023-272000-
NORTHEAST ILLINOIS

CITY           SKY/WX    TMP DP  RH WIND       PRES   REMARKS
OHARE          MOSUNNY   73  52  47 E6        30.17F
MIDWAY         MOSUNNY   72  53  51 SW5       30.17F
AURORA         MOSUNNY   72  56  57 SW3       30.18F
LANSING*       PTSUNNY   69  53  56 CALM      30.18F
JOLIET*        MOSUNNY   72  56  57 E3        30.17F
WAUKEGAN       SUNNY     69  54  58 E8        30.17F
DUPAGE AIRPORT SUNNY     72  53  51 CALM      30.17F
WHEELING       SUNNY     74  51  44 CALM      30.19F
KANKAKEE*      SUNNY     72  57  58 NE6       30.18F
MORRIS*        MOSUNNY   70  56  61 S3        30.17F
LEWIS AIRPORT* SUNNY     70  52  53 CALM      30.18F
NORTHERLY IS     N/A     66  56  70 NE8         N/A
$$

WIZ051-052-058>065-066-070>072-272000-
SOUTHEAST WISCONSIN

CITY           SKY/WX    TMP DP  RH WIND       PRES   REMARKS
MILWAUKEE      PTSUNNY   71  55  56 SE15      30.16F
KENOSHA*       MOSUNNY   73  55  53 MISG      30.17F
RACINE*        SUNNY     70  53  54 SE10      30.19F
BURLINGTON     MOSUNNY   72  53  51 SW3       30.17F
WAUKESHA       MOSUNNY   72  55  56 SW5       30.18S
WEST BEND      MOSUNNY   72  52  49 SW8       30.16F
$$

INZ001>003-010>013-019-020-272000-
NORTHWEST INDIANA

CITY           SKY/WX    TMP DP  RH WIND       PRES   REMARKS
GARY*          CLOUDY    70  54  56 CALM      30.19F
MICHIGAN CITY* NOT AVBL
RENSSELAER*    NOT AVBL
VALPARAISO     PTSUNNY   70  55  59 N3        30.19F
$$

LMZ740>746-272000-
SOUTHERN LAKE MICHIGAN

STATION/POSITION TIME  SKY/WX   TEMP WIND        PRES    VSBY
                                AIR  DIR/SP/G
                 (UTC)          (F)  (DEG/KT/KT) (MB)    (MI)
HARRISON CRIB    1900            65   50/  5/  5   N/A
BURNHAM HARBOR   1900            67   40/  6/  7   N/A
CALUMET HARBOR   1800            66   40/  4/  5   N/A
BURNS HARBOR     1800            66  330/  6/  7 1023.0R
MICHIGAN CITY    1900            68  330/  5/  6   N/A
$$

ABBREVIATIONS USED IN REMARKS
   TC - TEMPERATURE IN CELSIUS
  WCI - WIND CHILL INDEX
   HX - HEAT INDEX
  VSB - VISIBILITY
$$



USA.gov is the U.S. government's official web portal to all federal, state and local government web resources and services.